Погода в Галляарале

Узбекистан     40°01′36″N   67°35′30″E
темп.,
°C
ветер,
м/с
пор.,
м/с
влажн.,
%
обл.,
%
осадки,
мм/ч
давл.,
гПа
погр.,
м
27 февраля, сб
сб2723:00−6юз117597 0.0 102921
02:00−5зюз2268100 0.0 102869
05:00−5зюз2267100 0.0 102869
08:00−4зюз2356100 0.1 1028154
11:000юз3444100 0.1 1029460
14:00+3зюз353952 0.0 1027925
17:00+3зюз124225 0.0 1027735
20:00−2юв11590 0.0 102921
28 февраля, вс
вс2823:00−2сз11530 0.0 102821
02:00−2зюз11480 0.0 102621
05:00−1юз11470 0.0 102521
08:000св00460 0.0 102421
11:00+5всв22370 0.0 1022291
14:00+8всв22350 0.0 1019423
17:00+8всв22420 0.0 1018253
20:00+3ссв015631 0.0 102022
1 марта, пн
пн123:00+3зюз115065 0.0 102022
02:00+4юз1239100 0.0 102022
05:00+4юз1135100 0.0 102022
08:00+5юз1134100 0.0 102022
11:00+12юз112361 0.0 1019249
14:00+16юз25170 0.0 10181267
17:00+16з48220 0.0 1017799
20:00+10юз12330 0.0 102022
2 марта, вт
вт223:00+9юз223733 0.0 102123
02:00+8юз2339100 0.0 102124
05:00+7юз1138100 0.0 102022
08:00+8ююв0036100 0.0 102222
11:00+12всв3432100 0.0 1021340
14:00+13св3331100 0.0 1020426
17:00+12всв3336100 0.0 1020405
20:00+9св1146100 0.0 102223
3 марта, ср
ср323:00+8ссв1150100 0.0 102222
02:00+7сз2269100 0.0 102149
05:00+7ююв1172100 0.0 102124
08:00+7с1176100 0.0 1021101
11:00+7ссв2270100 0.1 1020405
14:00+8сз3372100 0.1 1019594
17:00+8всв117398 0.1 1018467
20:00+6в228589 0.0 101830